COSMOS 2433 (720)

Last updated on Fri Jun 19 2026 17:09:56 GMT+0000 (Coordinated Universal Time)

1 32275U 07052A 26169.32339645 -.00000055 00000+0 00000+0 0 9991 2 32275 65.5762 315.8954 0002576 193.7419 166.2393 2.13103991145088
UTC large
Height (km)
Speed (km/s)
/
Latitude / Longitude
Inclination (degrees)
Orbital Period (minutes)
Azimuth
Elevation
Range (km)
Doppler Factor

Next 0 passes for location: London (51.5072 / 0.1276)

No passes found over London.
COSMOS 2433 (720)